Weather Roundup
Issued by NWS Chicago, IL

Home | Current Version | Previous Version | Text Only | Print | Product List | Glossary Off
Versions: 1 2 3 4 5 6 7 8 9 10 11 12 13 14 15 16 17 18 19 20 21 22 23 24 25 26 27 28 29 30 31 32 33 34 35 36 37 38 39 40 41 42 43 44 45 46 47 48 49 50

000
NZUS59 KLOT 022210
HRRLOT

CHICAGO AREA WEATHER ROUNDUP
NATIONAL WEATHER SERVICE CHICAGO/ROMEOVILLE IL
500 PM CDT TUE SEP 02 2014

NOTE: "FAIR" INDICATES FEW OR NO CLOUDS BELOW 12,000 FEET WITH NO
SIGNIFICANT WEATHER AND/OR OBSTRUCTIONS TO VISIBILITY.

* THESE STATIONS ARE NOT UNDER NWS QUALITY CONTROL. THEY ALSO MAY NOT
  REPORT WEATHER SUCH AS PRECIPITATION OR FOG.

ILZ005-006-012>014-019>023-022300-
NORTHEAST ILLINOIS

CITY           SKY/WX    TMP DP  RH WIND       PRES   REMARKS
OHARE          MOSUNNY   80  55  42 W10       29.90S HX  80
MIDWAY         MOSUNNY   82  57  42 W12       29.89F HX  82
AURORA         MOSUNNY   80  57  45 W13       29.92S HX  80
LANSING*         N/A    N/A N/A N/A MISG        N/A
JOLIET*        SUNNY     81  58  45 W9        29.92S HX  81
WAUKEGAN       SUNNY     79  56  45 VRB6      29.90S HX  80
DUPAGE AIRPORT SUNNY     81  57  43 W10       29.91S HX  81
WHEELING       MOSUNNY   81  55  40 NW10      29.92R HX  81
KANKAKEE*      SUNNY     80  63  56 W7        29.92S HX  81
MORRIS*        SUNNY     82  61  49 W9        29.91F HX  82
LEWIS AIRPORT* SUNNY     79  58  48 NW10      29.91F HX  80
NORTHERLY IS     N/A     74  65  73 E6          N/A
$$

WIZ051-052-058>065-066-070>072-022300-
SOUTHEAST WISCONSIN

CITY           SKY/WX    TMP DP  RH WIND       PRES   REMARKS
MILWAUKEE      MOSUNNY   79  53  40 W14       29.89F
KENOSHA*       MOSUNNY   78  59  51 W8        29.91S
RACINE*        MOSUNNY   78  58  49 NW9       29.91S
BURLINGTON     MOSUNNY   76  58  53 W6        29.90F
WAUKESHA       PTSUNNY   73  57  56 W10       29.92S
WEST BEND      CLOUDY    72  55  56 W6        29.90S
$$

INZ001>003-010>013-019-020-022300-
NORTHWEST INDIANA

CITY           SKY/WX    TMP DP  RH WIND       PRES   REMARKS
GARY*          PTSUNNY   81  64  57 NE5       29.90S HX  82
MICHIGAN CITY* NOT AVBL
RENSSELAER*    NOT AVBL
VALPARAISO     SUNNY     81  61  50 W12       29.91S HX  82
$$

LMZ740>746-022300-
SOUTHERN LAKE MICHIGAN

STATION/POSITION TIME  SKY/WX   TEMP WIND        PRES    VSBY
                                AIR  DIR/SP/G
                 (UTC)          (F)  (DEG/KT/KT) (MB)    (MI)
HARRISON CRIB    2200            74   90/  8/  8   N/A
BURNHAM HARBOR   2200            74   80/  6/ 10   N/A
CALUMET HARBOR   2200            74   50/  8/ 10 1011.3F
BURNS HARBOR     NOT AVBL
MICHIGAN CITY    2200            73   30/  7/  8   N/A
$$

ABBREVIATIONS USED IN REMARKS
   TC - TEMPERATURE IN CELSIUS
  WCI - WIND CHILL INDEX
   HX - HEAT INDEX
  VSB - VISIBILITY
$$


USA.gov is the U.S. government's official web portal to all federal, state and local government web resources and services.